Kinloss, United Kingdom

8:10 AM GMT on February 20, 2018 (GMT +0000)
Kinloss Air Base

Weather History for EGQK - March, 2013

Change the Weather History Date:

Saturday, March 16, 2013

  Actual Average Record
Temperature  
Mean Temperature 32 °F -  
Max Temperature 41 °F 49 °F 64 °F (2004)
Min Temperature 24 °F 36 °F 24 °F (2013)
Degree Days  
Heating Degree Days 32    
Moisture  
Dew Point 33 °F    
Average Humidity 92    
Maximum Humidity 100    
Minimum Humidity 83    
Precipitation  
Precipitation 0.12 in 0.05 in - ()
Sea Level Pressure  
Sea Level Pressure 29.32 in    
Wind  
Wind Speed 4 mph ()    
Max Wind Speed 17 mph    
Max Gust Speed -    
Visibility 5.2 miles    
Events Fog , Rain    
Averages and records for this station are not official NWS values.
T = Trace of Precipitation, MM = Missing Value Source: Averaged Metar Reports

Daily Weather History Graph

Daily Weather History Graph

Search for Another Location

Airport or City:

Trip Planner

Search our weather history database for the weather conditions in past years. The results will help you decide how hot, cold, wet, or windy it might be!

Date:

Astronomy

Mar. 16, 2013 Rise Set
Actual Time 6:27 AM GMT 6:19 PM GMT
Civil Twilight 5:48 AM GMT 6:58 PM GMT
Nautical Twilight 5:02 AM GMT 7:44 PM GMT
Astronomical Twilight 4:14 AM GMT 8:33 PM GMT
Moon 7:45 AM GMT (3/16) No Moon Set
Length of Visible Light 13h 10m
Length of Day
11h 52m
Waxing Crescent, 21% of the Moon is Illuminated
Mar 16
Waxing Crescent
Mar 19
First Quarter
Mar 27
Full
Apr 3
Last Quarter
Apr 10
New

Hourly Weather History & Observations

Time (GMT) Temp. Windchill Dew Point Humidity Pressure Visibility Wind Dir Wind Speed Gust Speed Precip Events Conditions
12:50 AM 30.2 °F - 26.6 °F 86% 29.39 in 6.2 mi SSE 1.2 mph - N/A   Scattered Clouds
1:50 AM 26.6 °F - 24.8 °F 93% 29.39 in 6.2 mi WSW 1.2 mph - N/A   Partly Cloudy
2:50 AM 30 °F - 28 °F 91% 29.39 in 8 mi SSE 2.3 mph - - Fog Fog
2:50 AM 30.2 °F - 28.4 °F 93% 29.39 in 6.2 mi SSE 2.3 mph - N/A   Unknown
3:50 AM 28.4 °F 23.3 °F 26.6 °F 93% 29.39 in 6.2 mi WSW 4.6 mph - N/A   Partly Cloudy
4:50 AM 26.6 °F - 23.0 °F 86% 29.39 in 4.3 mi SW 1.2 mph - N/A   Haze
5:50 AM 25 °F - 23 °F 89% 29.39 in 0 mi SW 1.2 mph - - Fog Fog
5:50 AM 24.8 °F - 23.0 °F 93% 29.39 in 0.2 mi SW 1.2 mph - N/A Fog Fog
6:50 AM 24.8 °F - 23.0 °F 93% 29.39 in 0.8 mi SSW 1.2 mph - N/A   Unknown
7:50 AM 24.8 °F 20.5 °F 23.0 °F 93% 29.39 in 6.2 mi West 3.5 mph - N/A   Unknown
8:50 AM 30 °F - 28 °F 91% 29.40 in 25 mi SSW 1.2 mph - -   Partly Cloudy
8:50 AM 30.2 °F - 28.4 °F 93% 29.39 in 6.2 mi SSW 1.2 mph - N/A   Scattered Clouds
9:50 AM 32.0 °F 28.7 °F 30.2 °F 93% 29.39 in 6.2 mi SW 3.5 mph - N/A   Overcast
10:50 AM 33.8 °F 30.8 °F 32.0 °F 93% 29.39 in 6.2 mi SW 3.5 mph - N/A   Mostly Cloudy
11:50 AM 35 °F - 32 °F 83% 29.38 in 9 mi SW 3.5 mph - -   Overcast
11:50 AM 33.8 °F 30.8 °F 32.0 °F 93% 29.36 in 6.2 mi SW 3.5 mph - N/A   Overcast
12:50 PM 37.4 °F 34.9 °F 33.8 °F 87% 29.36 in 6.2 mi WSW 3.5 mph - N/A   Mostly Cloudy
1:50 PM 39.2 °F 35.9 °F 37.4 °F 93% 29.33 in 6.2 mi ENE 4.6 mph - N/A Rain Light Rain Showers
2:50 PM 41 °F - 39 °F 88% 29.31 in 13 mi NNE 11.5 mph - - Rain Light Rain
2:50 PM 41.0 °F 34.3 °F 39.2 °F 93% 29.30 in 6.2 mi NNE 11.5 mph - N/A Rain Light Rain
3:50 PM 41.0 °F 33.1 °F 39.2 °F 93% 29.27 in 5.0 mi NNE 15.0 mph - N/A Rain Rain
4:50 PM 41.0 °F 33.1 °F 39.2 °F 93% 29.27 in 3.7 mi NNE 15.0 mph - N/A Rain Light Rain
5:50 PM 40 °F - 38 °F 90% 29.26 in 4 mi NNE 12.7 mph - - Rain Rain
5:50 PM 41.0 °F 33.9 °F 37.4 °F 87% 29.24 in 4.3 mi NNE 12.7 mph - N/A Rain Rain
6:50 PM 41.0 °F 32.5 °F 39.2 °F 93% 29.24 in - NNE 17.3 mph - N/A Rain Rain
7:50 PM 41.0 °F 34.7 °F 39.2 °F 93% 29.21 in 4.3 mi NE 10.4 mph - N/A Rain Rain
8:50 PM 40 °F - 39 °F 93% 29.23 in 5 mi ENE 5.8 mph - - Rain Rain
8:50 PM 41.0 °F 37.1 °F 39.2 °F 93% 29.21 in 5.0 mi ENE 5.8 mph - N/A Rain Rain
9:50 PM 39.2 °F 35.9 °F 37.4 °F 93% 29.21 in - ENE 4.6 mph - N/A   Mostly Cloudy
10:50 PM 37.4 °F 32.1 °F 37.4 °F 100% 29.21 in - East 6.9 mph - N/A   Mostly Cloudy
11:50 PM 39 °F - 37 °F 91% 29.24 in 3 mi East 8.1 mph - -   Mist
11:50 PM 39.2 °F 33.6 °F 37.4 °F 93% 29.21 in 2.8 mi East 8.1 mph - N/A   Scattered Clouds